DW6801 Weather Reports


Display with metric or nautical units.
time (UTC)temp
F
wind
direction
speed
MPH
gust
MPH
rain 1hr
in
rain 24hr
in
rain mn
in
humidity
%
barometer
mb
20260507210020 40 332 0.0 0.0 0.00 0.00 0.00 82 1020.0
20260507205507 40 332 0.0 2.0 0.00 0.00 0.00 82 1019.9
20260507205008 40 332 0.0 2.0 0.00 0.00 0.00 81 1019.8
20260507204512 41 332 1.0 1.0 0.00 0.00 0.00 80 1019.8
20260507204009 41 341 1.0 2.0 0.00 0.00 0.00 79 1019.7
20260507203515 41 352 0.0 2.0 0.00 0.00 0.00 78 1019.7
20260507203013 41 352 0.0 1.0 0.00 0.00 0.00 79 1019.7
20260507202507 42 352 1.0 1.0 0.00 0.00 0.00 79 1019.7
20260507202010 42 352 0.0 0.0 0.00 0.00 0.00 78 1019.6
20260507201528 42 352 0.0 0.0 0.00 0.00 0.00 78 1019.6
20260507201009 42 352 0.0 0.0 0.00 0.00 0.00 77 1019.6
20260507200507 42 352 0.0 0.0 0.00 0.00 0.00 76 1019.6
20260507200033 43 352 0.0 0.0 0.00 0.00 0.00 76 1019.6
20260507195504 44 352 0.0 0.0 0.00 0.00 0.00 76 1019.5
20260507195008 44 352 0.0 0.0 0.00 0.00 0.00 77 1019.5
20260507194520 44 352 0.0 1.0 0.00 0.00 0.00 76 1019.5
20260507194009 44 352 0.0 1.0 0.00 0.00 0.00 74 1019.3
20260507193505 44 352 0.0 1.0 0.00 0.00 0.00 74 1019.4
20260507193027 45 352 1.0 1.0 0.00 0.00 0.00 73 1019.3
20260507192509 45 5 0.0 0.0 0.00 0.00 0.00 71 1019.3
20260507192011 46 5 0.0 0.0 0.00 0.00 0.00 70 1019.3
20260507191520 47 5 0.0 0.0 0.00 0.00 0.00 70 1019.2
20260507191010 47 5 0.0 0.0 0.00 0.00 0.00 70 1019.2
20260507190512 47 5 0.0 0.0 0.00 0.00 0.00 69 1019.1
20260507190028 48 5 0.0 2.0 0.00 0.00 0.00 67 1019.1
20260507185508 49 5 0.0 2.0 0.00 0.00 0.00 68 1018.9
20260507185010 49 5 0.0 2.0 0.00 0.00 0.00 67 1018.9
20260507184536 49 5 0.0 3.0 0.00 0.00 0.00 65 1018.7
20260507184009 50 360 1.0 3.0 0.00 0.00 0.00 65 1018.8
20260507183509 50 360 2.0 3.0 0.00 0.00 0.00 64 1018.7
20260507183026 50 334 1.0 4.0 0.00 0.00 0.00 63 1018.8
20260507182505 51 12 2.0 4.0 0.00 0.00 0.00 62 1018.8
20260507182011 51 352 3.0 4.0 0.00 0.00 0.00 63 1018.6
20260507181524 51 344 1.0 5.0 0.00 0.00 0.00 62 1018.6
20260507181011 51 9 2.0 5.0 0.00 0.00 0.00 61 1018.6
20260507180511 52 13 2.0 5.0 0.00 0.00 0.00 59 1018.4
20260507180023 52 360 2.0 5.0 0.00 0.00 0.00 58 1018.4